RYR9N EBCI-LFML

Flight info

Callsign RYR9N
Flight time N/A
Altitude 37000
Route RITAX UT27 ROUSY DCT GTQ DCT POGOL DCT LASAT DCT MOROK DCT GILIR DCT GEVEA DCT INCUS DCT BALSI
Aircraft B738/M-SDE3FGILRWY/SB1

Departure

Time N/A
Airport Brussels South Charleroi Airport (EBCI)

Arrival

Time 2026-04-30 11:54
Airport Marseille Provence Airport (LFML)
Time Latitude Longitude Altitude Speed Heading
2026-04-30 10:54 49.09093 6.21229 37304 ft 437 kts 168°
2026-04-30 10:54 49.06100 6.21929 37294 ft 437 kts 168°
2026-04-30 10:55 49.00064 6.23338 37301 ft 436 kts 168°
2026-04-30 10:55 48.94068 6.24735 37294 ft 437 kts 168°
2026-04-30 10:56 48.88062 6.26253 37303 ft 437 kts 167°
2026-04-30 10:56 48.82088 6.27914 37295 ft 438 kts 167°
2026-04-30 10:57 48.76072 6.29576 37287 ft 440 kts 167°
2026-04-30 10:57 48.70048 6.31215 37271 ft 442 kts 167°
2026-04-30 10:58 48.63979 6.32852 37266 ft 443 kts 167°
2026-04-30 10:58 48.57939 6.34476 37266 ft 443 kts 167°
2026-04-30 10:59 48.51846 6.36112 37264 ft 443 kts 168°
2026-04-30 10:59 48.45787 6.37736 37253 ft 443 kts 168°
2026-04-30 11:00 48.39719 6.39359 37247 ft 442 kts 168°
2026-04-30 11:00 48.33647 6.40977 37231 ft 442 kts 168°
2026-04-30 11:01 48.27622 6.42579 37228 ft 441 kts 168°
2026-04-30 11:01 48.21607 6.44175 37214 ft 440 kts 168°
2026-04-30 11:02 48.15561 6.45776 37212 ft 439 kts 168°
2026-04-30 11:02 48.09554 6.47363 37210 ft 438 kts 168°
2026-04-30 11:03 48.03578 6.48936 37208 ft 438 kts 168°
2026-04-30 11:04 47.94571 6.51302 37200 ft 437 kts 168°
2026-04-30 11:04 47.88547 6.52879 37203 ft 437 kts 168°
2026-04-30 11:05 47.82565 6.54443 37189 ft 438 kts 168°
2026-04-30 11:05 47.76580 6.56003 37199 ft 438 kts 168°
2026-04-30 11:06 47.70579 6.57563 37198 ft 439 kts 168°
2026-04-30 11:06 47.64532 6.59133 37195 ft 440 kts 168°
2026-04-30 11:07 47.58518 6.60690 37204 ft 441 kts 168°
2026-04-30 11:07 47.52434 6.62262 37201 ft 442 kts 169°
2026-04-30 11:08 47.46366 6.63825 37212 ft 443 kts 169°
2026-04-30 11:08 47.40242 6.64182 37214 ft 445 kts 194°
2026-04-30 11:08 47.37351 6.62540 37180 ft 445 kts 212°
2026-04-30 11:09 47.34895 6.59848 37238 ft 443 kts 221°
2026-04-30 11:09 47.30247 6.53886 37206 ft 445 kts 222°
2026-04-30 11:10 47.25564 6.47881 37198 ft 447 kts 221°
2026-04-30 11:10 47.20810 6.41913 37179 ft 447 kts 221°
2026-04-30 11:11 47.16081 6.36024 37195 ft 447 kts 221°
2026-04-30 11:11 47.11346 6.30137 37179 ft 446 kts 221°
2026-04-30 11:12 47.06226 6.25012 37179 ft 446 kts 203°
2026-04-30 11:12 47.00252 6.22894 37197 ft 443 kts 185°
2026-04-30 11:13 46.94112 6.22159 37186 ft 443 kts 184°
2026-04-30 11:13 46.87949 6.21436 37194 ft 441 kts 185°
2026-04-30 11:14 46.81850 6.20659 37182 ft 441 kts 185°
2026-04-30 11:14 46.75763 6.19852 37191 ft 441 kts 186°
2026-04-30 11:15 46.69634 6.19036 37186 ft 441 kts 186°
2026-04-30 11:15 46.63537 6.18227 37187 ft 441 kts 186°
2026-04-30 11:16 46.57415 6.17419 37192 ft 441 kts 186°
2026-04-30 11:16 46.51305 6.16615 37202 ft 442 kts 186°
2026-04-30 11:17 46.45442 6.15845 37200 ft 442 kts 186°
2026-04-30 11:17 46.39333 6.15044 37204 ft 443 kts 186°
2026-04-30 11:18 46.33161 6.14236 37213 ft 443 kts 186°
2026-04-30 11:18 46.23958 6.12981 37212 ft 443 kts 188°
2026-04-30 11:19 46.17867 6.11658 37211 ft 443 kts 191°
2026-04-30 11:19 46.11798 6.10227 37212 ft 443 kts 191°
2026-04-30 11:20 46.05696 6.08841 37194 ft 443 kts 190°
2026-04-30 11:20 45.99618 6.07495 37177 ft 443 kts 190°
2026-04-30 11:21 45.93507 6.06148 37160 ft 442 kts 190°
2026-04-30 11:21 45.87466 6.04817 37155 ft 441 kts 190°
2026-04-30 11:22 45.81420 6.03484 37157 ft 440 kts 190°
2026-04-30 11:22 45.75358 6.02144 37154 ft 439 kts 190°
2026-04-30 11:23 45.70334 6.01036 37157 ft 439 kts 190°
2026-04-30 11:24 45.60299 5.98829 37160 ft 438 kts 190°
2026-04-30 11:24 45.55248 5.97721 37161 ft 438 kts 191°
2026-04-30 11:25 45.49261 5.96205 36595 ft 438 kts 201°
2026-04-30 11:25 45.46592 5.94336 36101 ft 430 kts 219°
2026-04-30 11:25 45.42314 5.88538 35323 ft 419 kts 228°
2026-04-30 11:26 45.38284 5.82613 34512 ft 414 kts 228°
2026-04-30 11:26 45.36292 5.79714 34114 ft 411 kts 228°
2026-04-30 11:26 45.34283 5.76814 33698 ft 409 kts 227°
2026-04-30 11:27 45.32299 5.73970 33306 ft 406 kts 227°
2026-04-30 11:27 45.30312 5.71133 32898 ft 404 kts 227°
2026-04-30 11:27 45.28324 5.68301 32507 ft 401 kts 227°
2026-04-30 11:27 45.26363 5.65511 32118 ft 399 kts 227°
2026-04-30 11:28 45.22481 5.59994 31326 ft 394 kts 227°
2026-04-30 11:28 45.20544 5.57245 30951 ft 392 kts 227°
2026-04-30 11:28 45.18625 5.54523 30555 ft 390 kts 227°
2026-04-30 11:29 45.16703 5.51802 30177 ft 388 kts 227°
2026-04-30 11:29 45.14796 5.49103 29793 ft 385 kts 227°
2026-04-30 11:29 45.11050 5.43810 29012 ft 381 kts 226°
2026-04-30 11:30 45.07310 5.38545 28252 ft 378 kts 226°
2026-04-30 11:30 45.05444 5.35922 27874 ft 375 kts 226°
2026-04-30 11:30 45.03608 5.33341 27499 ft 374 kts 226°
2026-04-30 11:31 45.01763 5.30750 27117 ft 372 kts 226°
2026-04-30 11:31 44.99928 5.28176 26740 ft 370 kts 226°
2026-04-30 11:31 44.98117 5.25636 26366 ft 368 kts 226°
2026-04-30 11:31 44.96312 5.23107 26002 ft 366 kts 226°
2026-04-30 11:32 44.94505 5.20579 25628 ft 364 kts 226°
2026-04-30 11:32 44.92696 5.18049 25263 ft 362 kts 226°
2026-04-30 11:32 44.90918 5.15566 24912 ft 361 kts 226°
2026-04-30 11:33 44.87369 5.10616 24187 ft 359 kts 226°
2026-04-30 11:33 44.85586 5.08132 23821 ft 358 kts 226°
2026-04-30 11:33 44.83832 5.05690 23473 ft 357 kts 226°
2026-04-30 11:33 44.82060 5.03226 23117 ft 356 kts 226°
2026-04-30 11:34 44.80314 5.00800 22767 ft 355 kts 226°
2026-04-30 11:34 44.78542 4.98340 22384 ft 355 kts 226°
2026-04-30 11:34 44.76800 4.95922 22036 ft 354 kts 226°
2026-04-30 11:34 44.75032 4.93473 21676 ft 353 kts 225°
2026-04-30 11:35 44.73301 4.91079 21328 ft 352 kts 225°
2026-04-30 11:35 44.71339 4.89014 20951 ft 352 kts 209°
2026-04-30 11:35 44.69180 4.87492 20630 ft 349 kts 207°
2026-04-30 11:35 44.66994 4.86011 20273 ft 346 kts 206°
2026-04-30 11:36 44.64825 4.84534 19923 ft 344 kts 207°
2026-04-30 11:36 44.62678 4.83046 19577 ft 341 kts 207°
2026-04-30 11:36 44.60575 4.81571 19234 ft 339 kts 207°
2026-04-30 11:36 44.58461 4.80081 18897 ft 337 kts 207°
2026-04-30 11:37 44.56386 4.78620 18563 ft 334 kts 207°
2026-04-30 11:37 44.54206 4.77540 18204 ft 333 kts 192°
2026-04-30 11:37 44.51955 4.76984 17900 ft 330 kts 190°
2026-04-30 11:37 44.49682 4.76485 17561 ft 328 kts 189°
2026-04-30 11:38 44.47427 4.75994 17227 ft 326 kts 189°
2026-04-30 11:38 44.45214 4.75503 16914 ft 323 kts 190°
2026-04-30 11:38 44.42986 4.74998 16584 ft 322 kts 190°
2026-04-30 11:38 44.40780 4.74488 16263 ft 320 kts 190°
2026-04-30 11:39 44.38609 4.73982 15948 ft 318 kts 190°
2026-04-30 11:39 44.36432 4.73472 15629 ft 316 kts 190°
2026-04-30 11:39 44.34278 4.72965 15314 ft 314 kts 190°
2026-04-30 11:39 44.32130 4.72459 15003 ft 312 kts 190°
2026-04-30 11:40 44.29989 4.71955 14689 ft 309 kts 190°
2026-04-30 11:40 44.28712 4.71654 14501 ft 308 kts 190°
2026-04-30 11:40 44.26734 4.71189 14205 ft 307 kts 190°
2026-04-30 11:40 44.24637 4.70696 13892 ft 305 kts 190°
2026-04-30 11:41 44.22534 4.70201 13583 ft 304 kts 190°
2026-04-30 11:41 44.20460 4.69714 13280 ft 302 kts 190°
2026-04-30 11:41 44.18387 4.69227 12979 ft 300 kts 190°
2026-04-30 11:41 44.16345 4.68749 12681 ft 299 kts 190°
2026-04-30 11:42 44.14318 4.68275 12378 ft 297 kts 190°
2026-04-30 11:42 44.12264 4.67921 12064 ft 297 kts 178°
2026-04-30 11:42 44.10254 4.68542 11783 ft 296 kts 160°
2026-04-30 11:42 44.08368 4.69604 11494 ft 294 kts 158°
2026-04-30 11:43 44.06471 4.70709 11195 ft 293 kts 158°
2026-04-30 11:43 44.04582 4.71794 10894 ft 292 kts 158°
2026-04-30 11:43 44.02715 4.72852 10603 ft 291 kts 158°
2026-04-30 11:43 44.00840 4.73906 10311 ft 289 kts 158°
2026-04-30 11:44 43.98993 4.74941 10029 ft 288 kts 158°
2026-04-30 11:44 43.97136 4.75985 9730 ft 287 kts 158°
2026-04-30 11:44 43.95280 4.77028 9448 ft 286 kts 158°
2026-04-30 11:44 43.93451 4.78056 9149 ft 285 kts 158°
2026-04-30 11:45 43.91613 4.79087 8875 ft 284 kts 158°
2026-04-30 11:45 43.89781 4.80115 8585 ft 283 kts 158°
2026-04-30 11:45 43.87972 4.81129 8298 ft 281 kts 158°
2026-04-30 11:45 43.86155 4.82148 8016 ft 280 kts 158°
2026-04-30 11:46 43.84367 4.83150 7740 ft 278 kts 158°
2026-04-30 11:46 43.82568 4.84155 7415 ft 278 kts 158°
2026-04-30 11:46 43.80783 4.85153 7093 ft 278 kts 158°
2026-04-30 11:46 43.78985 4.86161 6791 ft 277 kts 157°
2026-04-30 11:47 43.77213 4.87159 6518 ft 275 kts 157°
2026-04-30 11:47 43.75454 4.88149 6216 ft 274 kts 157°
2026-04-30 11:47 43.73681 4.89142 5930 ft 273 kts 157°
2026-04-30 11:47 43.71939 4.90118 5665 ft 271 kts 157°
2026-04-30 11:48 43.70205 4.91093 5490 ft 265 kts 157°
2026-04-30 11:48 43.68506 4.92064 5322 ft 261 kts 156°
2026-04-30 11:48 43.66860 4.93006 5130 ft 257 kts 156°
2026-04-30 11:48 43.65216 4.93943 4943 ft 254 kts 156°
2026-04-30 11:49 43.63583 4.94874 4715 ft 252 kts 156°
2026-04-30 11:49 43.61973 4.95819 4481 ft 249 kts 150°
2026-04-30 11:49 43.60692 4.97180 4437 ft 238 kts 135°
2026-04-30 11:49 43.59531 4.98827 4156 ft 237 kts 132°
2026-04-30 11:50 43.58417 5.00457 3836 ft 231 kts 133°
2026-04-30 11:50 43.57335 5.02016 3535 ft 219 kts 133°
2026-04-30 11:50 43.56297 5.03496 3244 ft 208 kts 133°
2026-04-30 11:50 43.55307 5.04907 2965 ft 202 kts 133°
2026-04-30 11:51 43.54351 5.06269 2716 ft 198 kts 133°
2026-04-30 11:51 43.53400 5.07625 2451 ft 194 kts 133°
2026-04-30 11:51 43.52484 5.08931 2207 ft 184 kts 134°
2026-04-30 11:51 43.51618 5.10164 1953 ft 172 kts 134°
2026-04-30 11:52 43.50823 5.11298 1729 ft 160 kts 135°
2026-04-30 11:52 43.50074 5.12369 1520 ft 156 kts 136°
2026-04-30 11:52 43.49320 5.13440 1325 ft 158 kts 137°
2026-04-30 11:52 43.48563 5.14521 1114 ft 156 kts 138°
2026-04-30 11:53 43.47815 5.15590 896 ft 157 kts 137°
2026-04-30 11:53 43.47067 5.16689 701 ft 155 kts 137°
2026-04-30 11:53 43.46316 5.17757 432 ft 156 kts 137°
2026-04-30 11:53 43.45577 5.18806 286 ft 151 kts 137°
2026-04-30 11:54 43.44846 5.19829 83 ft 149 kts 136°
2026-04-30 11:54 43.44169 5.20792 18 ft 116 kts 133°
2026-04-30 11:54 43.43760 5.21374 35 ft 65 kts 134°
2026-04-30 11:54 43.43480 5.21776 44 ft 42 kts 134°
2026-04-30 11:55 43.43353 5.21967 49 ft 20 kts 120°
2026-04-30 11:55 43.43333 5.22141 51 ft 13 kts 90°
2026-04-30 11:55 43.43355 5.22254 50 ft 13 kts 45°
2026-04-30 11:55 43.43437 5.22263 50 ft 13 kts 335°
2026-04-30 11:56 43.43520 5.22201 48 ft 14 kts 328°
2026-04-30 11:56 43.43606 5.22134 46 ft 15 kts 331°
2026-04-30 11:56 43.43699 5.22059 44 ft 16 kts 329°
2026-04-30 11:56 43.43794 5.21968 41 ft 17 kts 314°
2026-04-30 11:57 43.43874 5.21853 38 ft 18 kts 314°
2026-04-30 11:57 43.43959 5.21732 33 ft 16 kts 310°
2026-04-30 11:57 43.43949 5.21599 31 ft 15 kts 228°
2026-04-30 11:57 43.43932 5.21472 31 ft 15 kts 305°
2026-04-30 11:58 43.44007 5.21365 28 ft 16 kts 321°
2026-04-30 11:58 43.44101 5.21391 27 ft 16 kts 43°
2026-04-30 11:58 43.44178 5.21492 27 ft 15 kts 44°
2026-04-30 11:58 43.44251 5.21589 27 ft 14 kts 44°
2026-04-30 11:59 43.44313 5.21670 27 ft 10 kts 44°
2026-04-30 11:59 43.44352 5.21726 27 ft 8 kts 61°
2026-04-30 11:59 43.44338 5.21767 28 ft 4 kts 155°
2026-04-30 11:59 43.44316 5.21747 28 ft 3 kts 236°
2026-04-30 12:00 43.44315 5.21746 28 ft 0 kts 236°